Hourly Data Report for April 20, 2017

CLYDE RIVER A
NUNAVUT

70°29'09.000" N
68°31'01.000" W
26.50 m
2400804
71090
YCY

Download Data

Hourly Data (April 2017)
Hourly Data Report for April 20, 2017
TIME
LST
Temp Definition
°C
Dew Point Definition
°C
Rel Hum Definition
%
Precip. Amount Definition
mm

Wind Dir Definition
10's deg

Wind Spd Definition
km/h
Visibility Definition
km
Stn Press Definition
kPa
Hmdx Definition


Wind Chill Definition


Weather Definition


00:00 -20.6 -22.4 86 0.0 31 18 16.1 101.83   -31 Snow
01:00 -21.2 -23.4 83 0.0 30 13 16.1 101.86   -30 Snow
02:00 -21.4 -23.4 84 0.0 31 21 16.1 101.89   -32 Snow
03:00 -19.9 -21.8 85 0.0 32 26 16.1 101.92   -32 Snow
04:00 -18.4 -20.5 84 0.0 32 21 9.7 101.92   -29 Snow
05:00 -18.0 -20.1 84 0.0 31 22 6.4 101.94   -28 Snow
06:00 -17.7 -20.2 81 0.0 30 22 8.1 101.95   -28 Snow
07:00 -17.8 -20.2 82 0.0 29 28 4.8 101.95   -29 Snow
08:00 -16.6 -19.1 81 0.0 30 30 2.8 101.95   -28 Snow
09:00 -16.2 -18.9 80 0.0 30 32 4.8 101.95   -28 Snow
10:00 -15.7 -18.4 80 0.0 30 32 11.3 101.93   -27 LegendNANA
11:00 -14.7 -17.3 81 0.0 31 35 2.4 101.91   -26 Snow
12:00 -14.5 -16.9 82 0.0 31 39 0.6 101.89   -27 Moderate Snow
13:00 -14.3 -16.8 82 0.0 31 37 1.2 101.88   -26 Snow
14:00 -14.2 -16.9 80 0.0 31 37 2.4 101.89   -26 Snow
15:00 -14.1 -16.8 81 0.0 31 39 2.8 101.89   -26 Snow
16:00 -14.0 -16.7 80 0.0 31 35 4.8 101.91   -25 Snow
17:00 -14.9 -17.5 81 0.0 30 34 12.9 101.92   -27 Snow
18:00 -16.0 -18.6 81 0.0 30 32 16.1 101.93   -28 Snow
19:00 -16.6 -19.0 82 0.0 30 34 16.1 101.93   -29 Snow
20:00 -17.0 -19.5 81 0.0 30 34 16.1 101.94   -29 LegendNANA
21:00 -17.2 -19.6 82 0.0 30 32 16.1 101.95   -29 LegendNANA
22:00 -15.9 -17.8 86 0.0 30 34 4.8 101.91   -28 Snow
23:00 -15.6 -17.7 84 0.0 31 37 4.0 101.89   -28 Snow

Notes on Data Quality.

Legend

  • E = Estimated
  • M = Missing
  • NA = Not Available*
  • [empty] = Indicates an unobserved value
Date modified: